Klamath Falls, OR

10:26 AM PST on February 10, 2016 (GMT -0800)
Klamath Falls International

Weather History for KLMT - April, 2012

Change the Weather History Date:

Sunday, April 8, 2012

  Actual Average Record
Temperature  
Mean Temperature 44 °F 41 °F  
Max Temperature 62 °F 54 °F 73 °F (1996)
Min Temperature 26 °F 28 °F 17 °F (1991)
Degree Days  
Heating Degree Days 21 24  
Month to date heating degree days 222 196  
Since 1 July heating degree days 5769 5858  
Cooling Degree Days 0 0  
Month to date cooling degree days 0 0  
Year to date cooling degree days 0 0  
Moisture  
Dew Point 17 °F    
Average Humidity 41    
Maximum Humidity 78    
Minimum Humidity 14    
Precipitation  
Precipitation 0.00 in 0.04 in 0.34 in (1984)
Month to date precipitation 0.09 0.28  
Year to date precipitation 3.62 5.32  
Sea Level Pressure  
Sea Level Pressure 30.01 in    
Wind  
Wind Speed 8 mph (South)    
Max Wind Speed 24 mph    
Max Gust Speed 30 mph    
Visibility 10 miles    
Events      
T = Trace of Precipitation, MM = Missing Value Source: NWS Daily Summary

Daily Weather History Graph

Daily Weather History Graph

Search for Another Location

Airport or City:

Trip Planner

Search our weather history database for the weather conditions in past years. The results will help you decide how hot, cold, wet, or windy it might be!

Date:

Astronomy

Apr. 08, 2012 Rise Set
Actual Time 6:36 AM PDT 7:41 PM PDT
Civil Twilight 6:08 AM PDT 8:09 PM PDT
Nautical Twilight 5:33 AM PDT 8:44 PM PDT
Astronomical Twilight 4:58 AM PDT 9:20 PM PDT
Moon 10:38 PM PDT (4/8) 7:34 AM PDT (4/8)
Length of Visible Light 14h 01m
Length of Day
13h 04m
Waning Gibbous, 94% of the Moon is Illuminated
Apr 8
Waning Gibbous
Apr 13
Last Quarter
Apr 21
New
Apr 29
First Quarter
May 5
Full

Hourly Weather History & Observations

Time (PDT) Temp. Windchill Dew Point Humidity Pressure Visibility Wind Dir Wind Speed Gust Speed Precip Events Conditions
12:53 AM 39.0 °F 36.8 °F 24.1 °F 55% 30.04 in 10.0 mi SE 3.5 mph - N/A   Clear
1:53 AM 30.9 °F 27.5 °F 23.0 °F 72% 30.05 in 10.0 mi NW 3.5 mph - N/A   Clear
2:53 AM 33.1 °F - 23.0 °F 66% 30.02 in 10.0 mi Calm Calm - N/A   Clear
3:53 AM 28.9 °F - 23.0 °F 78% 30.04 in 10.0 mi Calm Calm - N/A   Clear
4:53 AM 30.0 °F - 23.0 °F 75% 30.04 in 10.0 mi Calm Calm - N/A   Clear
5:53 AM 30.0 °F - 19.9 °F 66% 30.04 in 10.0 mi Calm Calm - N/A   Clear
6:00 AM 28.4 °F 23.3 °F 21.2 °F 74% 30.04 in 10.0 mi SE 4.6 mph - N/A   Scattered Clouds
6:53 AM 26.1 °F - 19.9 °F 78% 30.06 in 10.0 mi Calm Calm - N/A   Mostly Cloudy
7:53 AM 30.0 °F - 21.9 °F 72% 30.08 in 10.0 mi Calm Calm - N/A   Mostly Cloudy
8:53 AM 34.0 °F - 26.1 °F 73% 30.08 in 9.0 mi Calm Calm - N/A   Mostly Cloudy
9:53 AM 48.0 °F - 19.0 °F 32% 30.04 in 10.0 mi ESE 4.6 mph - N/A   Mostly Cloudy
10:53 AM 54.0 °F - 10.9 °F 18% 30.02 in 10.0 mi SSE 12.7 mph - N/A   Mostly Cloudy
11:53 AM 55.9 °F - 10.9 °F 17% 30.03 in 10.0 mi SSE 8.1 mph - N/A   Mostly Cloudy
12:53 PM 59.0 °F - 10.9 °F 15% 30.00 in 10.0 mi SSE 13.8 mph 19.6 mph N/A   Mostly Cloudy
1:53 PM 59.0 °F - 14.0 °F 17% 30.00 in 10.0 mi SSW 4.6 mph - N/A   Mostly Cloudy
2:53 PM 61.0 °F - 14.0 °F 16% 29.97 in 10.0 mi SSW 13.8 mph - N/A   Overcast
3:53 PM 60.1 °F - 12.9 °F 16% 29.96 in 10.0 mi SSW 17.3 mph - N/A   Overcast
4:53 PM 57.0 °F - 17.1 °F 21% 29.96 in 10.0 mi SW 13.8 mph - N/A   Overcast
5:53 PM 55.9 °F - 16.0 °F 21% 29.97 in 10.0 mi SW 15.0 mph - N/A   Overcast
6:53 PM 54.0 °F - 15.1 °F 22% 29.99 in 10.0 mi SSW 10.4 mph - N/A   Overcast
7:53 PM 53.1 °F - 14.0 °F 21% 29.98 in 10.0 mi SSW 9.2 mph - N/A   Overcast
8:53 PM 52.0 °F - 8.1 °F 17% 29.99 in 7.0 mi SSW 21.9 mph 29.9 mph N/A   Overcast
9:53 PM 48.9 °F - 9.0 °F 20% 29.96 in 7.0 mi South 11.5 mph - N/A   Overcast
10:53 PM 41.0 °F 33.9 °F 15.1 °F 35% 29.96 in 10.0 mi SSE 12.7 mph - N/A   Clear
11:53 PM 43.0 °F 36.4 °F 16.0 °F 34% 29.96 in 10.0 mi SSE 12.7 mph - N/A   Clear